• In United Kingdom
  • List of Countries
  • For 7 days
  • Water Temperature
  • Satellite Maps
  • Weather Map
  • Weather Widgets
  • user-avatar
    Login

    Hourly Weather Brisbane

    Today, 22 July, Saturday

    Time Temperature Precipitation Wind Pressure Humidity
    00:00 +10°C° 0 mm 2 mps 765 mmHg 60%
    01:00 +10°C° 0 mm 2 mps 765 mmHg 61%
    02:00 +9°C° 0 mm 2 mps 765 mmHg 62%
    03:00 +9°C° 0 mm 2 mps 765 mmHg 63%
    04:00 +9°C° 0 mm 3 mps 765 mmHg 63%
    05:00 +9°C° 0 mm 3 mps 765 mmHg 64%
    06:00 +9°C° 0 mm 3 mps 766 mmHg 66%
    07:00 +9°C° 0 mm 3 mps 766 mmHg 67%
    08:00 +13°C° 0 mm 2 mps 766 mmHg 61%
    09:00 +16°C° 0 mm 2 mps 766 mmHg 54%
    10:00 +19°C° 0 mm 2 mps 766 mmHg 48%
    11:00 +20°C° 0 mm 2 mps 765 mmHg 46%
    12:00 +22°C° 0 mm 1 mps 765 mmHg 43%
    13:00 +23°C° 0 mm 1 mps 764 mmHg 41%
    14:00 +23°C° 0 mm 1 mps 764 mmHg 43%
    15:00 +21°C° 0 mm 2 mps 764 mmHg 45%
    16:00 +21°C° 0 mm 2 mps 764 mmHg 47%
    17:00 +19°C° 0 mm 2 mps 764 mmHg 57%
    18:00 +17°C° 0 mm 2 mps 764 mmHg 67%
    19:00 +15°C° 0 mm 2 mps 765 mmHg 76%
    20:00 +15°C° 0 mm 1 mps 765 mmHg 80%
    21:00 +14°C° 0 mm 1 mps 765 mmHg 83%
    22:00 +14°C° 0 mm 1 mps 765 mmHg 86%
    23:00 +14°C° 0 mm 1 mps 765 mmHg 87%

    Tomorrow, 23 July, Sunday

    Time Temperature Precipitation Wind Pressure Humidity
    00:00 +13°C° 0 mm 1 mps 765 mmHg 89%
    01:00 +13°C° 0 mm 1 mps 765 mmHg 90%
    02:00 +12°C° 0 mm 1 mps 765 mmHg 91%
    03:00 +12°C° 0 mm 2 mps 764 mmHg 91%
    04:00 +12°C° 0 mm 2 mps 764 mmHg 92%
    05:00 +12°C° 0 mm 2 mps 765 mmHg 91%
    06:00 +12°C° 0 mm 2 mps 765 mmHg 90%
    07:00 +12°C° 0 mm 2 mps 766 mmHg 90%
    08:00 +14°C° 0 mm 2 mps 766 mmHg 78%
    09:00 +17°C° 0 mm 3 mps 766 mmHg 67%
    10:00 +20°C° 0 mm 3 mps 766 mmHg 56%
    11:00 +21°C° 0 mm 3 mps 765 mmHg 48%
    12:00 +22°C° 0 mm 3 mps 764 mmHg 41%
    13:00 +25°C° 0 mm 3 mps 763 mmHg 34%
    14:00 +25°C° 0 mm 3 mps 763 mmHg 35%
    15:00 +24°C° 0 mm 3 mps 763 mmHg 36%
    16:00 +24°C° 0 mm 2 mps 762 mmHg 37%
    17:00 +21°C° 0 mm 2 mps 763 mmHg 42%
    18:00 +19°C° 0 mm 2 mps 763 mmHg 48%
    19:00 +17°C° 0 mm 2 mps 764 mmHg 53%
    20:00 +16°C° 0 mm 2 mps 764 mmHg 52%
    21:00 +15°C° 0 mm 2 mps 764 mmHg 52%
    22:00 +14°C° 0 mm 2 mps 764 mmHg 51%
    23:00 +13°C° 0 mm 2 mps 764 mmHg 50%

    Day after tomorrow, 24 July, Monday

    Time Temperature Precipitation Wind Pressure Humidity
    00:00 +13°C° 0 mm 2 mps 764 mmHg 50%
    01:00 +12°C° 0 mm 2 mps 764 mmHg 49%
    02:00 +12°C° 0 mm 2 mps 764 mmHg 49%
    03:00 +12°C° 0 mm 2 mps 764 mmHg 49%
    04:00 +10°C° 0 mm 2 mps 763 mmHg 48%
    05:00 +10°C° 0 mm 2 mps 764 mmHg 48%
    06:00 +10°C° 0 mm 2 mps 764 mmHg 47%
    07:00 +10°C° 0 mm 2 mps 765 mmHg 46%
    08:00 +15°C° 0 mm 2 mps 765 mmHg 41%
    09:00 +18°C° 0 mm 2 mps 765 mmHg 36%
    10:00 +21°C° 0 mm 2 mps 765 mmHg 30%
    11:00 +23°C° 0 mm 2 mps 765 mmHg 28%
    12:00 +25°C° 0 mm 1 mps 764 mmHg 25%
    13:00 +27°C° 0 mm 1 mps 764 mmHg 23%
    14:00 +26°C° 0 mm 2 mps 763 mmHg 26%
    15:00 +26°C° 0 mm 2 mps 763 mmHg 29%
    16:00 +25°C° 0 mm 2 mps 763 mmHg 31%
    17:00 +23°C° 0 mm 2 mps 764 mmHg 38%
    18:00 +19°C° 0 mm 2 mps 764 mmHg 45%
    19:00 +18°C° 0 mm 1 mps 765 mmHg 51%
    20:00 +16°C° 0 mm 1 mps 765 mmHg 54%
    21:00 +15°C° 0 mm 1 mps 766 mmHg 56%
    22:00 +15°C° 0 mm 1 mps 766 mmHg 59%
    23:00 +14°C° 0 mm 1 mps 766 mmHg 59%

    25 July, Tuesday

    Time Temperature Precipitation Wind Pressure Humidity
    00:00 +14°C° 0 mm 2 mps 766 mmHg 59%
    01:00 +13°C° 0 mm 2 mps 765 mmHg 58%
    02:00 +13°C° 0 mm 2 mps 765 mmHg 57%
    03:00 +12°C° 0 mm 2 mps 765 mmHg 56%
    04:00 +12°C° 0 mm 2 mps 765 mmHg 55%
    05:00 +12°C° 0 mm 2 mps 766 mmHg 55%
    06:00 +12°C° 0 mm 2 mps 766 mmHg 55%
    07:00 +12°C° 0 mm 2 mps 767 mmHg 55%
    08:00 +15°C° 0 mm 2 mps 767 mmHg 48%
    09:00 +18°C° 0 mm 2 mps 767 mmHg 41%
    10:00 +22°C° 0 mm 1 mps 767 mmHg 35%
    11:00 +23°C° 0 mm 1 mps 766 mmHg 32%
    12:00 +25°C° 0 mm 1 mps 766 mmHg 29%
    13:00 +26°C° 0 mm 1 mps 765 mmHg 27%
    14:00 +25°C° 0 mm 1 mps 765 mmHg 29%
    15:00 +24°C° 0 mm 1 mps 764 mmHg 32%
    16:00 +24°C° 0 mm 2 mps 764 mmHg 35%
    17:00 +21°C° 0 mm 2 mps 765 mmHg 46%
    18:00 +18°C° 0 mm 2 mps 765 mmHg 57%
    19:00 +16°C° 0 mm 2 mps 766 mmHg 68%
    20:00 +16°C° 0 mm 1 mps 766 mmHg 71%
    21:00 +15°C° 0 mm 1 mps 766 mmHg 75%
    22:00 +14°C° 0 mm 1 mps 766 mmHg 79%
    23:00 +14°C° 0 mm 1 mps 766 mmHg 79%

    26 July, Wednesday

    Time Temperature Precipitation Wind Pressure Humidity
    00:00 +13°C° 0 mm 2 mps 766 mmHg 79%
    01:00 +13°C° 0 mm 2 mps 766 mmHg 79%
    02:00 +13°C° 0 mm 2 mps 765 mmHg 75%
    03:00 +12°C° 0 mm 2 mps 765 mmHg 71%
    04:00 +12°C° 0 mm 2 mps 765 mmHg 67%
    05:00 +12°C° 0 mm 2 mps 766 mmHg 64%
    06:00 +12°C° 0 mm 2 mps 766 mmHg 62%
    07:00 +12°C° 0 mm 2 mps 766 mmHg 59%
    08:00 +15°C° 0 mm 2 mps 766 mmHg 51%
    09:00 +18°C° 0 mm 2 mps 766 mmHg 43%
    10:00 +21°C° 0 mm 2 mps 766 mmHg 35%
    11:00 +24°C° 0 mm 2 mps 765 mmHg 31%
    12:00 +26°C° 0 mm 1 mps 764 mmHg 28%
    13:00 +27°C° 0 mm 1 mps 763 mmHg 24%
    14:00 +27°C° 0 mm 2 mps 763 mmHg 27%
    15:00 +26°C° 0 mm 2 mps 763 mmHg 30%
    16:00 +26°C° 0 mm 3 mps 763 mmHg 33%
    17:00 +24°C° 0 mm 3 mps 763 mmHg 39%
    18:00 +20°C° 0 mm 3 mps 763 mmHg 45%
    19:00 +18°C° 0 mm 3 mps 764 mmHg 52%
    20:00 +18°C° 0 mm 3 mps 764 mmHg 52%
    21:00 +17°C° 0 mm 3 mps 764 mmHg 53%
    22:00 +16°C° 0 mm 3 mps 764 mmHg 53%
    23:00 +16°C° 0 mm 3 mps 763 mmHg 53%

    27 July, Thursday

    Time Temperature Precipitation Wind Pressure Humidity
    00:00 +16°C° 0 mm 3 mps 763 mmHg 53%
    01:00 +14°C° 0 mm 3 mps 763 mmHg 53%
    02:00 +14°C° 0 mm 3 mps 763 mmHg 52%
    03:00 +14°C° 0 mm 3 mps 763 mmHg 52%
    04:00 +14°C° 0 mm 4 mps 763 mmHg 51%
    05:00 +14°C° 0 mm 4 mps 763 mmHg 53%
    06:00 +14°C° 0 mm 4 mps 764 mmHg 56%
    07:00 +13°C° 0 mm 4 mps 764 mmHg 58%
    08:00 +15°C° 0 mm 5 mps 765 mmHg 50%
    09:00 +17°C° 0 mm 5 mps 765 mmHg 43%
    10:00 +20°C° 0 mm 5 mps 765 mmHg 35%
    11:00 +21°C° 0 mm 5 mps 764 mmHg 31%
    12:00 +22°C° 0 mm 5 mps 764 mmHg 27%
    13:00 +23°C° 0 mm 5 mps 763 mmHg 22%
    14:00 +22°C° 0 mm 5 mps 763 mmHg 24%
    15:00 +22°C° 0 mm 4 mps 763 mmHg 25%
    16:00 +22°C° 0 mm 4 mps 764 mmHg 26%
    17:00 +20°C° 0 mm 4 mps 764 mmHg 32%
    18:00 +18°C° 0 mm 4 mps 765 mmHg 39%
    19:00 +15°C° 0 mm 4 mps 766 mmHg 45%
    20:00 +14°C° 0 mm 4 mps 767 mmHg 48%
    21:00 +13°C° 0 mm 4 mps 767 mmHg 51%
    22:00 +12°C° 0 mm 4 mps 767 mmHg 54%
    23:00 +12°C° 0 mm 4 mps 767 mmHg 55%
    Show more